TALLINN current weather conditions

sailwx.info

Wind from 200 at 11 knots

Air temperature 1.0° C
Visibility: greater than 4.3 NM
Dewpoint -0.0° C
Present weather: Light snow.

Last reported at 2015-Feb-01 15:20 UTC.
Time now 2015-Feb-01 16:43 UTC

Location: N 59°24' E 024°49'.
View on Google Maps.

See reports from other nearby stations

  
Tides and Currents Weather Stations Pressure Air Temp Water Temp Dewpoint Dewpoint Depression Visibility Wind Speed Wind Dir Waves Ship Positions
date/time (UTC)wind fromknots sea level pressurealtimeterstation pressurevisibilityair tempwater tempwave heightnotes
2015-Feb-01 15:20 200 11 4.3 1.0 Light snow.
2015-Feb-01 14:50 200 11 4.9 1.0 Light snow.
2015-Feb-01 14:20 210 13 4.9 1.0 Light snow.
2015-Feb-01 13:50 210 13 4.9 1.0 Light snow.
2015-Feb-01 13:20 210 13 1.5 1.0 Snow.
2015-Feb-01 12:50 210 11 5.4 1.0 Light snow.
2015-Feb-01 12:20 210 10 0.8 1.0 Heavy snow.
2015-Feb-01 11:50 220 11 1.3 1.0 Snow.
2015-Feb-01 11:20 220 13 1.1 1.0 Snow.
2015-Feb-01 10:50 220 9 1.4-0.0 Snow.
2015-Feb-01 10:20 220 9 1.5-0.0 Snow.
2015-Feb-01 09:50 220 8 2.3-0.0 Snow.
2015-Feb-01 09:20 220 7 1.9-0.0 Snow.
2015-Feb-01 08:50 220 6 3.2-0.0 Light snow.
2015-Feb-01 08:20 200 3 1.7-0.0 Snow.
2015-Feb-01 07:50 1.7-0.0 Snow.
2015-Feb-01 07:20 0.8-0.0 Heavy snow.
2015-Feb-01 06:50 110 2 0.6-0.0 Heavy snow.
2015-Feb-01 06:20 100 2 0.8-0.0 Heavy snow.
2015-Feb-01 05:50 090 3 0.6-0.0 Heavy snow showers.
2015-Feb-01 05:20 080 4 1.0-0.0 Heavy snow.
2015-Feb-01 04:50 080 5 1.2-0.0 Snow.
2015-Feb-01 04:20 070 5 0.9-0.0 Heavy snow.
2015-Feb-01 03:50 070 5 0.8-0.0 Heavy snow.
2015-Feb-01 03:20 070 6 1.4-0.0 Snow.
2015-Feb-01 02:50 070 5 3.8 1.0 Snow.
2015-Feb-01 02:20 080 6 4.9 1.0 Light snow rain.
2015-Feb-01 01:50 070 7 5.4 1.0 Light rain snow.
2015-Feb-01 01:20 070 7 5.4 1.0 Light rain.
2015-Feb-01 00:50 080 8 5.4 1.0 Light snow.
2015-Feb-01 00:20 090 9 5.4 1.0 Light snow.
2015-Jan-31 23:50 090 9 5.4 1.0 Light snow rain.
2015-Jan-31 23:20 090 10 4.9 1.0 Light snow rain.
2015-Jan-31 22:50 090 10 5.4 1.0 Light rain.
2015-Jan-31 22:20 080 10 5.4 1.0 Light rain.
2015-Jan-31 21:50 080 10 5.4 1.0 Light rain.
2015-Jan-31 21:20 090 11 5.4 1.0 Light rain.
2015-Jan-31 20:50 090 11 5.4 1.0 Light rain snow.
2015-Jan-31 20:20 090 11 5.4 1.0 Light rain snow.
2015-Jan-31 19:50 090 12 5.4 1.0 Light rain snow.
2015-Jan-31 19:20 090 12 5.4 1.0 Light rain snow.
2015-Jan-31 18:50 090 12 5.4 1.0 Light rain snow.
2015-Jan-31 18:20 100 13 4.9 1.0 Light rain snow.
2015-Jan-31 17:50 100 14 5.4 2.0 Light rain.
2015-Jan-31 17:20 100 14 5.4 1.0 Light rain.
2015-Jan-31 16:50 100 13 5.4 1.0 Light rain.
2015-Jan-31 16:20 100 15 5.4 2.0 Light rain drizzle.
2015-Jan-31 15:50 100 15 5.4 1.0
2015-Jan-31 15:20 100 14 5.4 1.0
2015-Jan-31 14:50 110 13 5.4 1.0 Light rain.
2015-Jan-31 14:20 110 13 3.2 1.0 Light drizzle rain.
2015-Jan-31 13:50 110 14 5.4 2.0
2015-Jan-31 13:20 110 15 5.4 1.0 Light rain.
2015-Jan-31 12:50 110 15 4.9 1.0 Light rain.
2015-Jan-31 12:20 110 14 5.4 1.0 Light snow.
2015-Jan-31 11:50 110 16 5.4 2.0 Light snow.
2015-Jan-31 11:20 110 14 5.4 2.0
2015-Jan-31 10:50 110 14 5.4 2.0
2015-Jan-31 10:20 110 17 5.4 2.0
2015-Jan-31 09:50 110 15 5.4 2.0
2015-Jan-31 09:20 110 15 5.4 2.0
2015-Jan-31 08:50 110 16 5.4 2.0
2015-Jan-31 08:20 120 14 5.4 1.0 Light rain.
2015-Jan-31 07:50 120 15 5.4 1.0
2015-Jan-31 07:20 110 14 5.4 1.0
2015-Jan-31 06:50 110 15 5.4 1.0
2015-Jan-31 06:20 110 15 5.4 1.0
2015-Jan-31 05:50 110 14 5.4 1.0
2015-Jan-31 05:20 110 13 5.4 1.0
2015-Jan-31 04:50 110 15 5.4 1.0
2015-Jan-31 04:20 120 14 5.4 1.0
2015-Jan-31 03:50 120 15 5.4 1.0
2015-Jan-31 03:20 110 13 5.4 1.0
2015-Jan-31 02:50 100 15 5.4 1.0
2015-Jan-31 02:20 110 13 5.4-0.0
2015-Jan-31 01:50 100 14 5.4-0.0
2015-Jan-31 01:20 100 13 5.4-0.0
2015-Jan-31 00:50 100 14 5.4-0.0
2015-Jan-31 00:20 110 12 5.4-0.0
2015-Jan-30 23:50 120 11 5.4-0.0
2015-Jan-30 23:20 120 11 5.4-0.0
2015-Jan-30 22:50 130 10 5.4 1.0
2015-Jan-30 22:20 120 10 5.4 1.0
2015-Jan-30 21:50 120 10 5.4-0.0
2015-Jan-30 21:20 110 10 5.4-0.0
2015-Jan-30 20:50 110 9 5.4-0.0
2015-Jan-30 20:20 110 7 5.4-1.0
2015-Jan-30 19:50 110 6 5.4-1.0
2015-Jan-30 19:20 100 8 5.4-2.0
2015-Jan-30 18:50 110 8 5.4-3.0
2015-Jan-30 18:20 120 7 -2.0
2015-Jan-30 17:50 120 8 -2.0
2015-Jan-30 17:20 120 8 -2.0
2015-Jan-30 16:50 120 8 -1.0
2015-Jan-30 16:20 120 9 -1.0